Regional Weather Roundup
Issued by NWS Boston, MA

Home | Current Version | Previous Version | Text Only | Print | Product List | Glossary On
Versions: 1 2 3 4 5 6 7 8 9 10 11 12 13 14 15 16 17 18 19 20 21 22 23 24 25 26 27 28 29 30 31 32 33 34 35 36 37 38 39 40 41 42 43 44 45 46 47 48 49 50
979
ASUS41 KBOX 242010
RWRBOX

REGIONAL WEATHER ROUNDUP
NATIONAL WEATHER SERVICE TAUNTON MA
400 PM EDT TUE MAY 24 2016

NOTE:  "FAIR" INDICATES FEW OR NO CLOUDS BELOW 12,000 FEET WITH NO
SIGNIFICANT WEATHER AND/OR OBSTRUCTIONS TO VISIBILITY.  THE FOLLOWING
OBSERVATION LOCATIONS DO NOT REPORT PRESENT WEATHER...PROVINCETOWN...
SMITHFIELD...BLOCK ISLAND...KEENE...AND OXFORD.

MAZALL-242100-
EASTERN MASSACHUSETTS

CITY           SKY/WX    TMP DP  RH WIND       PRES   REMARKS
BOSTON         CLOUDY    56  52  86 NE13      29.93S
BEVERLY        CLOUDY    54  50  86 NE9       29.93S FOG
LAWRENCE       CLOUDY    57  51  80 NE13      29.95S
BEDFORD        CLOUDY    60  53  77 N9        29.91S
BLUE HILL        N/A     53  52  96 NE7       29.90S
NORWOOD        CLOUDY    57  52  83 NE8       29.91S
MARSHFIELD       N/A     55  54  94 NE7       29.91S FOG
PLYMOUTH       CLOUDY    55  55 100 NE7       29.91S FOG
TAUNTON        CLOUDY    60  53  77 MISG      29.90R
NEW BEDFORD    CLOUDY    60  54  80 N6        29.88S
$$

MAZALL-242100-
CAPE COD AND THE ISLANDS

CITY           SKY/WX    TMP DP  RH WIND       PRES   REMARKS
FALMOUTH       CLOUDY    55  54  94 SE9       29.90R
HYANNIS        CLOUDY    56  52  86 SE8       29.89R
CHATHAM        CLOUDY    56  53  90 SE8       29.92R
PROVINCETOWN   MOSUNNY   63  54  72 NE9       29.91R
NANTUCKET      CLOUDY    57  52  83 S16       29.89S
MARTHAS VNYRD  CLOUDY    55  51  86 SE6       29.89R
$$

MAZALL-242100-
CENTRAL AND WESTERN MASSACHUSETTS

CITY           SKY/WX    TMP DP  RH WIND       PRES   REMARKS
WORCESTER      CLOUDY    57  53  86 N12       29.92S
FITCHBURG      CLOUDY    62  54  74 VRB6      29.93S
ORANGE         CLOUDY    62  55  77 N8        29.92S
SPRINGFIELD    NOT AVBL
WESTFIELD      CLOUDY    64  55  72 NE14      29.90F
NORTH ADAMS    PTSUNNY   66  52  60 SE3       29.92F
PITTSFIELD     CLOUDY    65  53  65 NE10      29.92R
$$

RIZALL-242100-
RHODE ISLAND

CITY           SKY/WX    TMP DP  RH WIND       PRES   REMARKS
PROVIDENCE     CLOUDY    59  52  77 NE13      29.90S
NEWPORT        CLOUDY    59  54  83 N10       29.88S
BLOCK ISLAND   LGT RAIN  56  55  97 CALM      29.90S FOG
SMITHFIELD       N/A    N/A N/A N/A MISG        N/A
WESTERLY       CLOUDY    63  54  72 VRB5      29.89S
$$

CTZALL-242100-
CONNECTICUT

CITY           SKY/WX    TMP DP  RH WIND       PRES   REMARKS
BRADLEY INTL   CLOUDY    66  56  70 N8        29.89S
HARTFORD       CLOUDY    67  56  67 N8        29.89S
BRIDGEPORT     CLOUDY    63  58  83 SW6       29.90S
DANBURY        TSTM      63  58  83 N7        29.93R
GROTON         CLOUDY    62  60  93 NW5       29.89R FOG
NEW HAVEN      CLOUDY    65  56  72 VRB5      29.90S
CHESTER        CLOUDY    61  57  88 CALM      29.90S
MERIDEN        CLOUDY    67  56  67 N5        29.90S
WILLIMANTIC    CLOUDY    66  55  67 NE10      29.90S
OXFORD         CLOUDY    64  54  68 N7        29.92S
$$

MEZ002-015-021-024-NHZ003-005-008-011-012-014-VTZ005-008-242100-
NORTHERN NEW ENGLAND

CITY           SKY/WX    TMP DP  RH WIND       PRES   REMARKS
PORTLAND ME    CLOUDY    52  51  97 E8        29.97F FOG
BANGOR ME      CLOUDY    68  56  65 SE8       29.96F
CONCORD NH     CLOUDY    64  54  69 N8        29.94S
MANCHESTER NH  CLOUDY    62  54  74 NE10      29.93S
NASHUA NH      CLOUDY    62  55  77 VRB5      29.93F
PORTSMOUTH NH  CLOUDY    55  51  88 NE10      29.94F
JAFFREY NH     CLOUDY    60  54  80 VRB5      29.94S
KEENE NH         N/A    N/A N/A N/A MISG        N/A
BURLINGTON VT  FAIR      78  49  35 S17       29.87S
MT. WASHINGTON FOG       45  45 100 E5          N/A  VSB 1/8
$$

NYZ052-076-242100-
EASTERN NEW YORK

CITY           SKY/WX    TMP DP  RH WIND       PRES   REMARKS
ALBANY         PTSUNNY   66  54  65 NE7       29.93F
NEW YORK CITY  CLOUDY    71  56  58 N8        29.90S
$$

ANZALL-242100-
MARINE OBSERVATIONS

STATION/POSITION TIME  TEMP    WIND        PRES    VSBY  WAVE
                       AIR SEA DIR/SP/G                  HT/PER
                 (UTC) (F)     (DEG/KT/KT) (MB)    (MI)  (FT/S)
BOSTON BUOY      1950   52 54   20/ 14/ 16 1012.5S         3/ 9
BUZZARDS BAY     1900   53     100/  7/  8 1012.1S
NANTUCKET SOUND  1950   56 56  150/ 10/ 12 1012.0R         2/ 8
MASS BAY-STELLWA 1904   51 53                N/A     5/8   4/ 8
ISLE OF SHOALS   2000   50      20/ 15/ 17 1013.8F
S OF BLOCK IS    1925      53                N/A           4/ 9
$$

......................KEY.........................
  SKY/WX - SKY CONDITION/PRESENT WEATHER
  TMP    - TEMPERATURE IN FAHRENHEIT
  DWPT   - DEWPOINT IN FAHRENHEIT
  RH     - RELATIVE HUMIDITY IN PERCENT
  WIND   - DIRECTION AND SPEED IN MPH
  PRES   - MEAN SEA LEVEL PRESSURE IN INCHES OF HG
  WCI    - WIND CHILL INDEX
  VSB    - VISIBILITY IN MILES
  HX     - HEAT INDEX
  TC     - TEMPERATURE IN CELSIUS
  VRB    - VARIABLE WIND DIRECTION
  N/A    - NOT AVAILABLE




USA.gov is the U.S. government's official web portal to all federal, state and local government web resources and services.